Weather History for Cortez, CO

Change the Weather History Date:

Thursday, June 14, 2012

  Actual Average Record
Temperature  
Mean Temperature 66 °F 64 °F  
Max Temperature 91 °F 85 °F 93 °F (2002)
Min Temperature 41 °F 43 °F 28 °F (2001)
Degree Days  
Heating Degree Days 0 3  
Month to date heating degree days 11 58  
Since 1 June heating degree days 11 58  
Since 1 July heating degree days 5927 6425  
Cooling Degree Days 1 2  
Month to date cooling degree days 38 16  
Year to date cooling degree days 47 21  
Since 1 June cooling degree days 38 16  
Growing Degree Days 16 (Base 50)    
Moisture  
Dew Point 19 °F    
Average Humidity 24    
Maximum Humidity 43    
Minimum Humidity 4    
Precipitation  
Precipitation 0.00 in 0.02 in 0.00 in (2015)
Month to date precipitation 0.00 0.24  
Year to date precipitation 2.42 5.38  
Sea Level Pressure  
Sea Level Pressure 29.76 in    
Wind  
Wind Speed 6 mph (SE)    
Max Wind Speed 20 mph    
Max Gust Speed 24 mph    
Visibility 10 miles    
Events      
T = Trace of Precipitation, MM = Missing Value Source: NWS Daily Summary

Daily Weather History Graph

Daily Weather History Graph

Search for Another Location

Airport:

Trip Planner

Search our weather history database for the weather conditions in past years. The results will help you decide how hot, cold, wet, or windy it might be!

Date:

Astronomy

Jun. 14, 2012 Rise Set
Actual Time 5:53 AM MDT 8:36 PM MDT
Civil Twilight 5:22 AM MDT 9:07 PM MDT
Nautical Twilight 4:43 AM MDT 9:46 PM MDT
Astronomical Twilight 4:00 AM MDT 10:29 PM MDT
Moon 2:33 AM MDT (6/14) 4:26 PM MDT (6/14)
Length of Visible Light 15h 45m
Length of Day
14h 43m
Waning Crescent, 20% of the Moon is Illuminated
Jun 14
Waning Crescent
Jun 19
New
Jun 26
First Quarter
Jul 3
Full
Jul 10
Last Quarter

Hourly Weather History & Observations

Time (MDT) Temp. Windchill Dew Point Humidity Pressure Visibility Wind Dir Wind Speed Gust Speed Precip Events Conditions
12:53 AM 52.0 °F - 27.0 °F 38% 29.72 in 10.0 mi NNE 4.6 mph - N/A   Clear
1:53 AM 50.0 °F - 21.0 °F 32% 29.73 in 10.0 mi Calm Calm - N/A   Clear
2:53 AM 48.0 °F - 21.0 °F 34% 29.75 in 10.0 mi East 4.6 mph - N/A   Clear
3:53 AM 43.0 °F 41.3 °F 21.9 °F 43% 29.76 in 10.0 mi NE 3.5 mph - N/A   Clear
4:53 AM 43.0 °F 41.3 °F 21.0 °F 42% 29.77 in 10.0 mi NE 3.5 mph - N/A   Clear
5:53 AM 42.1 °F 37.7 °F 21.0 °F 43% 29.79 in 10.0 mi East 6.9 mph - N/A   Clear
6:53 AM 48.0 °F - 25.0 °F 41% 29.80 in 10.0 mi ESE 3.5 mph - N/A   Clear
7:53 AM 60.1 °F - 23.0 °F 24% 29.78 in 10.0 mi East 4.6 mph - N/A   Clear
8:53 AM 71.1 °F - 27.0 °F 19% 29.81 in 10.0 mi NNE 3.5 mph - N/A   Clear
9:53 AM 78.1 °F - 17.1 °F 10% 29.81 in 10.0 mi Calm Calm - N/A   Clear
10:53 AM 81.0 °F - 19.0 °F 10% 29.80 in 10.0 mi SSW 5.8 mph - N/A   Clear
11:53 AM 84.0 °F - 16.0 °F 8% 29.80 in 10.0 mi South 6.9 mph - N/A   Clear
12:53 PM 84.9 °F - 15.1 °F 7% 29.80 in 10.0 mi SSW 12.7 mph 17.3 mph N/A   Clear
1:53 PM 88.0 °F - 15.1 °F 7% 29.77 in 10.0 mi SW 10.4 mph 20.7 mph N/A   Clear
2:53 PM 90.0 °F - 10.0 °F 5% 29.75 in 10.0 mi Variable 4.6 mph - N/A   Clear
3:53 PM 89.1 °F - 10.0 °F 5% 29.75 in 10.0 mi South 10.4 mph - N/A   Clear
4:53 PM 91.0 °F - 8.1 °F 4% 29.75 in 10.0 mi SSW 11.5 mph - N/A   Clear
5:53 PM 89.1 °F - 10.9 °F 5% 29.74 in 10.0 mi SSW 10.4 mph - N/A   Clear
6:53 PM 87.1 °F - 10.9 °F 6% 29.72 in 10.0 mi West 6.9 mph - N/A   Clear
7:53 PM 84.0 °F - 14.0 °F 7% 29.70 in 10.0 mi SW 6.9 mph - N/A   Clear
8:53 PM 71.1 °F - 24.1 °F 17% 29.71 in 10.0 mi South 3.5 mph - N/A   Clear
9:53 PM 62.1 °F - 21.9 °F 21% 29.73 in 10.0 mi Calm Calm - N/A   Clear
10:53 PM 59.0 °F - 25.0 °F 27% 29.74 in 10.0 mi ENE 9.2 mph - N/A   Clear
11:53 PM 57.0 °F - 21.0 °F 25% 29.73 in 10.0 mi NE 12.7 mph - N/A   Clear